Vorticity
8 9 3 -1 5 4 5 7 4 4 6 5 3 4 5 4 4 8 5 4 6 8 17 9 10 9 7 8 4 3 5 4 3 6 6 7 7 5 6 7 5 3 4
8 10 11 6 3 6 4 6 6 4 4 4 4 4 4 4 4 5 6 4 4 5 7 16 11 8 8 7 6 5 5 6 6 3 4 3 6 8 6 6 5 3 2
16 6 10 11 6 5 6 4 7 6 6 4 4 3 4 4 4 5 5 7 3 4 5 6 11 14 8 6 8 6 3 3 4 6 5 6 6 5 6 5 4 2 2
7 16 7 8 10 7 6 4 5 6 6 6 5 5 5 4 4 5 4 5 6 4 4 5 6 8 16 10 7 7 5 4 4 5 5 6 5 5 6 5 4 2 3
5 9 17 7 8 7 6 5 4 5 5 6 7 7 5 6 5 6 5 4 9 5 4 4 7 9 8 13 12 6 6 6 5 5 5 5 6 6 4 3 3 3 4
9 7 10 16 7 8 5 5 5 4 4 4 5 6 8 9 9 6 5 5 5 7 3 4 6 9 10 7 9 17 6 5 5 5 4 5 6 5 5 5 3 5 5
-3 10 10 12 18 8 6 5 5 6 5 5 3 4 6 8 8 8 8 6 5 6 5 4 5 8 11 9 7 9 21 8 5 4 4 4 7 7 6 5 4 4 3
-12 10 11 10 9 16 9 7 6 5 4 4 5 4 4 4 5 7 9 10 7 6 6 5 4 8 11 10 7 9 11 20 10 6 6 2 6 7 5 6 4 5 6
13 12 9 11 9 12 20 12 7 6 6 6 7 7 6 5 4 3 6 10 9 6 6 6 5 6 11 11 8 7 8 14 16 10 6 4 6 3 4 7 6 5 4
9 -2 1 7 17 10 15 18 14 8 6 5 5 4 3 5 4 4 3 6 12 10 6 6 7 5 9 11 7 7 7 9 13 19 9 7 3 3 4 5 10 8 9
4 -5 7 8 4 13 14 19 21 12 8 7 6 6 6 5 6 4 3 4 8 11 8 8 11 5 7 9 9 7 8 5 9 21 18 8 3 5 5 5 12 8 5
-20 17 6 -37 2 7 4 2 17 21 15 7 8 7 6 6 6 6 5 5 5 8 8 6 7 10 6 7 6 7 6 8 9 16 20 11 4 5 5 8 9 6 3
10 12 -7 6 15 52 8 8 14 14 18 16 12 9 10 7 7 7 7 5 4 5 7 5 4 10 5 8 5 10 6 7 10 14 23 10 5 9 7 9 6 4 5
1 11 -5 -3 17 -4 58 -1 5 13 15 14 14 13 11 10 8 6 6 6 5 6 6 5 5 6 7 4 6 7 8 6 8 8 16 15 8 7 8 7 3 2 4
-31 -7 -18 21 27 40 14 7 1 6 15 15 7 9 7 7 10 9 7 8 8 6 6 9 7 5 11 7 6 6 7 7 6 7 9 11 8 8 6 5 -0 4 6
10 -4 22 16 28 7 2 -0 8 1 8 13 14 17 14 10 11 10 12 13 12 12 10 8 11 8 6 7 8 8 9 8 6 7 7 8 9 7 4 5 1 8 6
-14 16 42 26 24 10 7 -9 12 7 2 4 5 2 8 13 12 11 15 13 11 11 10 11 10 11 11 7 4 5 8 9 9 9 8 6 7 8 5 7 5 10 3
-5 10 1 2 -6 -7 4 -8 -1 10 -1 2 3 5 10 8 1 8 8 3 4 9 8 8 8 12 13 11 7 6 6 7 9 12 9 8 8 7 6 8 9 6 0
-13 10 1 -14 13 23 32 3 11 -2 -1 34 -2 5 4 8 4 6 4 2 7 10 13 13 13 11 6 6 11 10 10 10 9 9 11 11 8 7 4 4 5 10 11
28 8 20 26 -6 26 0 -36 -11 -5 0 5 6 1 -2 -1 4 3 2 -0 5 4 1 5 11 16 18 14 9 6 7 11 10 9 10 11 14 10 6 6 -1 5 6
14 8 -3 10 34 46 35 10 3 28 10 4 1 4 4 2 3 1 4 3 3 6 3 2 1 -2 5 6 7 10 9 8 6 8 8 8 12 9 2 3 11 36 31
10 -13 17 1 -27 -36 20 13 1 14 11 17 10 3 3 4 7 1 2 2 2 4 2 3 -2 1 4 -6 3 12 -1 8 15 11 9 9 12 9 12 -4 7 14 2
20 16 -20 -3 -7 -25 28 3 19 10 23 18 16 13 7 4 4 0 10 2 4 5 2 6 3 1 4 3 3 21 23 11 -12 11 15 9 8 3 -0 -8 10 36 37
30 19 17 -5 10 13 -14 -13 -1 10 5 21 16 14 14 11 3 5 5 4 2 -1 -0 2 8 6 11 3 1 -6 5 5 -26 11 18 10 11 10 16 8 0 18 16
2 22 17 32 53 21 7 8 -3 -6 4 7 7 13 16 17 9 8 5 9 10 6 -4 4 6 7 -1 7 -1 12 22 5 16 37 3 6 3 13 13 -3 -2 12 11
21 11 -1 1 18 25 51 1 15 17 -7 3 8 7 10 12 15 17 8 12 4 8 7 8 7 -0 -2 13 7 5 3 22 -4 5 28 11 18 70 63 -17 14 5 10
Height
5911 5913 5916 5920 5923 5925 5928 5931 5933 5935 5938 5940 5943 5944 5947 5949 5950 5952 5953 5954 5956 5956 5957 5957 5958 5960 5962 5964 5965 5966 5968 5968 5968 5968 5968 5968 5968 5968 5967 5967 5966 5964 5963
5907 5912 5915 5917 5918 5923 5926 5928 5931 5934 5936 5938 5941 5943 5946 5947 5949 5950 5952 5953 5955 5955 5956 5957 5958 5959 5960 5962 5964 5966 5967 5968 5968 5968 5968 5968 5968 5968 5967 5967 5966 5964 5962
5898 5904 5910 5913 5917 5919 5923 5926 5927 5930 5934 5936 5938 5941 5943 5944 5946 5947 5950 5951 5953 5954 5955 5955 5956 5957 5958 5960 5961 5962 5964 5966 5967 5967 5966 5966 5966 5966 5966 5965 5964 5962 5960
5892 5897 5901 5907 5911 5914 5916 5919 5924 5926 5928 5932 5935 5937 5939 5941 5943 5944 5946 5948 5950 5952 5953 5953 5954 5954 5956 5957 5958 5960 5961 5962 5963 5964 5964 5965 5965 5965 5965 5964 5962 5961 5959
5885 5890 5895 5899 5903 5906 5911 5914 5916 5921 5923 5926 5929 5932 5934 5937 5939 5941 5942 5944 5946 5948 5949 5950 5951 5951 5952 5953 5955 5956 5957 5959 5960 5960 5961 5962 5962 5963 5962 5962 5961 5959 5958
5880 5884 5888 5892 5895 5900 5903 5908 5910 5914 5917 5920 5923 5927 5930 5933 5935 5936 5938 5940 5941 5943 5945 5946 5947 5948 5949 5949 5950 5952 5953 5955 5956 5957 5958 5959 5959 5959 5959 5959 5959 5957 5955
5871 5875 5880 5884 5889 5892 5895 5899 5904 5907 5910 5915 5918 5921 5925 5928 5930 5932 5933 5935 5937 5938 5940 5942 5943 5943 5943 5945 5946 5947 5949 5950 5951 5953 5954 5954 5955 5954 5955 5955 5955 5955 5953
5864 5869 5873 5877 5881 5885 5890 5893 5898 5901 5903 5907 5912 5915 5918 5922 5924 5926 5928 5931 5933 5934 5936 5937 5938 5939 5939 5940 5941 5943 5943 5944 5945 5947 5949 5949 5951 5950 5951 5951 5951 5951 5949
5856 5863 5864 5870 5873 5877 5884 5889 5891 5893 5897 5901 5904 5908 5912 5915 5917 5919 5921 5925 5928 5930 5931 5933 5934 5934 5935 5935 5936 5937 5938 5939 5939 5941 5943 5943 5945 5944 5946 5947 5946 5947 5945
5849 5852 5856 5862 5867 5870 5875 5879 5882 5886 5888 5890 5894 5899 5903 5907 5909 5912 5915 5918 5922 5925 5925 5927 5929 5929 5929 5930 5931 5932 5934 5933 5932 5934 5937 5938 5939 5940 5940 5941 5941 5941 5940
5840 5845 5850 5853 5858 5863 5866 5870 5874 5878 5881 5884 5888 5892 5895 5898 5901 5904 5907 5911 5915 5917 5919 5921 5922 5923 5923 5924 5926 5927 5928 5926 5926 5928 5931 5932 5932 5933 5934 5935 5936 5935 5935
5830 5835 5838 5844 5851 5855 5858 5861 5865 5869 5873 5876 5881 5884 5889 5891 5892 5896 5899 5904 5907 5910 5913 5914 5915 5915 5916 5916 5918 5920 5921 5920 5921 5921 5923 5924 5924 5926 5927 5928 5929 5929 5928
5815 5825 5832 5837 5842 5846 5848 5851 5857 5860 5864 5868 5873 5878 5881 5882 5883 5887 5890 5894 5897 5901 5904 5905 5905 5905 5907 5909 5912 5913 5913 5913 5913 5914 5915 5916 5917 5918 5920 5921 5921 5921 5921
5809 5814 5823 5829 5831 5836 5840 5842 5849 5855 5858 5860 5866 5872 5873 5875 5876 5878 5881 5884 5887 5891 5894 5894 5896 5897 5899 5901 5904 5905 5905 5905 5907 5908 5909 5910 5909 5911 5911 5912 5914 5913 5913
5798 5805 5813 5819 5819 5823 5830 5835 5841 5847 5849 5852 5854 5859 5862 5867 5870 5868 5870 5873 5876 5879 5879 5883 5890 5892 5893 5895 5896 5896 5897 5898 5900 5900 5901 5900 5900 5901 5903 5903 5905 5906 5905
5784 5795 5799 5806 5810 5814 5819 5824 5830 5836 5839 5844 5847 5851 5854 5857 5860 5861 5864 5867 5867 5867 5871 5878 5882 5884 5886 5886 5887 5887 5889 5890 5892 5892 5893 5893 5893 5894 5895 5895 5896 5895 5895
5765 5781 5785 5790 5798 5803 5809 5814 5820 5826 5829 5835 5839 5843 5845 5848 5851 5854 5856 5857 5857 5857 5864 5868 5872 5874 5875 5876 5877 5877 5879 5880 5882 5884 5884 5884 5884 5886 5887 5887 5886 5885 5883
5751 5761 5771 5779 5785 5792 5799 5805 5808 5813 5818 5824 5828 5834 5837 5839 5842 5845 5847 5848 5849 5850 5854 5858 5861 5862 5865 5865 5866 5868 5867 5870 5871 5873 5874 5875 5877 5879 5879 5877 5874 5874 5874
5738 5748 5755 5764 5770 5776 5783 5790 5793 5799 5806 5810 5816 5822 5826 5829 5832 5833 5836 5839 5841 5843 5845 5848 5850 5853 5854 5854 5857 5857 5857 5857 5858 5859 5860 5862 5864 5865 5865 5864 5863 5861 5858
5723 5737 5742 5749 5758 5765 5769 5775 5783 5791 5795 5800 5805 5810 5814 5818 5822 5825 5826 5829 5831 5834 5835 5838 5840 5841 5842 5841 5841 5843 5844 5844 5845 5845 5846 5848 5849 5851 5852 5850 5848 5844 5840
5708 5720 5727 5737 5745 5753 5758 5764 5770 5778 5784 5788 5795 5799 5802 5804 5809 5812 5816 5818 5821 5824 5826 5827 5828 5829 5830 5831 5830 5830 5830 5830 5830 5830 5831 5833 5835 5838 5837 5836 5835 5831 5824
5692 5700 5714 5725 5732 5737 5744 5751 5758 5764 5770 5775 5780 5784 5789 5790 5795 5801 5803 5805 5810 5812 5814 5814 5815 5816 5816 5817 5817 5818 5818 5817 5817 5817 5817 5818 5819 5821 5822 5822 5820 5817 5812
5676 5686 5699 5709 5718 5727 5732 5737 5745 5750 5754 5759 5764 5770 5775 5779 5783 5786 5789 5794 5798 5800 5800 5800 5801 5801 5801 5801 5800 5800 5800 5801 5803 5804 5804 5803 5803 5804 5805 5806 5806 5799 5795
5659 5671 5680 5691 5702 5710 5718 5724 5730 5736 5741 5745 5750 5755 5760 5764 5767 5770 5774 5779 5782 5783 5783 5783 5785 5786 5786 5785 5787 5786 5788 5788 5787 5787 5787 5787 5787 5786 5786 5787 5788 5785 5783
5645 5656 5666 5675 5684 5694 5703 5709 5716 5722 5726 5732 5736 5741 5744 5749 5753 5755 5758 5762 5763 5765 5766 5768 5768 5769 5769 5770 5769 5769 5772 5772 5771 5770 5770 5769 5768 5769 5770 5770 5770 5770 5771
5631 5640 5651 5661 5666 5675 5685 5693 5700 5706 5712 5716 5721 5725 5730 5731 5734 5737 5740 5742 5743 5745 5747 5748 5748 5748 5748 5748 5750 5750 5752 5752 5752 5751 5752 5752 5753 5749 5749 5755 5755 5751 5753